Regional Weather Roundup
Issued by NWS

Home | Current Version | Previous Version | Text Only | Print | Product List | Glossary Off
Versions: 1 2 3 4 5 6 7 8 9 10 11 12 13 14 15 16 17 18 19 20 21 22 23 24 25 26 27 28 29 30 31 32 33 34 35 36 37 38 39 40 41 42 43 44 45 46 47 48 49 50

000
ASUS43 KMPX 270010
RWRMN
WEATHER ROUNDUP FOR MINNESOTA
NATIONAL WEATHER SERVICE TWIN CITIES/CHANHASSEN MN
700 PM CDT FRI MAY 26 2017


NOTE: "FAIR" INDICATES FEW OR NO CLOUDS BELOW 12,000 FEET WITH NO
SIGNIFICANT WEATHER AND/OR OBSTRUCTIONS TO VISIBILITY. N/A MEANS
CURRENT SKY AND/OR WEATHER CONDITIONS ARE NOT AVAILABLE.

MNZ060>063-068>070-270100-
   Twin Cities Metro

CITY           SKY/WX    TMP DP  RH WIND       PRES   REMARKS
TWIN CITIES    MOSUNNY   78  49  35 W10       29.72R
6HR MIN TEMP:  72; 6HR MAX TEMP:  80;

ST PAUL        PTSUNNY   77  51  40 W15G23    29.72R
CRYSTAL        SUNNY     76  45  33 W13       29.72R
BLAINE         MOSUNNY   79  48  34 W12G18    29.72R
LAKEVILLE      SUNNY     75  52  43 W12       29.74R
EDEN PRAIRIE   SUNNY     77  47  34 W10G22    29.73R
6HR MIN TEMP:  74; 6HR MAX TEMP:  81;

SOUTH ST PAUL  MOSUNNY   78  49  35 W10       29.72R
LAKE ELMO      FAIR      73  59  60 SW5       29.73R
$$
MNZ001>005-007-008-013>017-022>024-027-028-270100-
   Northwest Minnesota

CITY           SKY/WX    TMP DP  RH WIND       PRES   REMARKS
BEMIDJI        MOSUNNY   68  44  40 W14       29.71R
HALLOCK        CLOUDY    66  45  45 W16       29.67S
ROSEAU         MOSUNNY   68  46  45 SW15      29.67R
WARROAD        MOSUNNY   66  46  48 W14G21    29.67R
THIEF RVR FALL MOSUNNY   66  43  43 W15       29.72R
CROOKSTON      MOSUNNY   68  43  40 W17G23    29.72S
FOSSTON        MOSUNNY   66  43  42 W14G20    29.74R
DETROIT LAKES  SUNNY     66  41  39 W15G23    29.76S
MOORHEAD       SUNNY     68  39  34 MISG      29.76R
PARK RAPIDS    LGT RAIN  70  41  34 W17G24    29.73R
MAHNOMEN       FAIR      67  42  39 W18       29.73S
$$
MNZ006-009>011-018-025>026-270100-
   North Central Minnesota

CITY           SKY/WX    TMP DP  RH WIND       PRES   REMARKS
BAUDETTE       CLOUDY    68  44  42 W14G21    29.66R HAZE
FLAG ISLAND    PTSUNNY   66  45  45 SW14      29.63R
INTL FALLS     MOSUNNY   71  41  33 W10       29.66R
6HR MIN TEMP:  66; 6HR MAX TEMP:  76; 6HR PCP:  0.02;

WASKISH        MOSUNNY   66  52  59 W13       29.69R
BIG FORK       MOSUNNY   72  43  35 SW8       29.68R
LONGVILLE      MOSUNNY   70  45  40 SW7       29.71R
GRAND RAPIDS   MOSUNNY   71  46  40 W8        29.72R
CRANE LAKE     CLOUDY    66  57  72 CALM      29.68R
ORR            MOSUNNY   70  43  37 W3        29.65R
COOK           PTSUNNY   72  43  35 SW13G20   29.68R
WALKER         MOCLDY    69  44  41 W8        29.72R
$$
MNZ012-019>021-037-270100-
   Northeast Minnesota

CITY           SKY/WX    TMP DP  RH WIND       PRES   REMARKS
DULUTH         MOSUNNY   63  52  67 E8        29.71S
6HR MIN TEMP:  61; 6HR MAX TEMP:  69;

ELY            PTSUNNY   61  55  82 SE8       29.71R
HIBBING        MOSUNNY   72  46  39 W9        29.68R
EVELETH        MOSUNNY   73  38  28 W10G16    29.70R
DULUTH HARBOR  CLOUDY    48  46  93 E3        29.74R THUNDER
TWO HARBORS    CLOUDY    64  57  77 CALM      29.70R
SILVER BAY     CLOUDY    61  55  82 NE6       29.70F
GRAND MARAIS     N/A     52  47  83 NE7       29.75S
G MARAIS ARPRT PTSUNNY   59  48  67 E5        29.79R
$$
MNZ029>031-032-039>041-046>048-054>057-064-270100-
   West Central Minnesota

CITY           SKY/WX    TMP DP  RH WIND       PRES   REMARKS
FERGUS FALLS   SUNNY     66  45  45 NW15G21   29.74S
WHEATON        SUNNY     70  39  32 W14G21    29.79R
MORRIS         SUNNY     72  45  37 W14G21    29.77S
ALEXANDRIA     SUNNY     69  43  38 W13       29.77S
ELBOW LAKE     FAIR      68  44  41 NW13G21   29.77S
WADENA         SUNNY     68  45  42 W13       29.74S
GLENWOOD       SUNNY     70  45  40 W10       29.78R
APPLETON       SUNNY     72  39  30 NW8G16    29.77S
BENSON         SUNNY     72  43  35 N15       29.79R
ORTONVILLE     SUNNY     70  43  37 NW10      29.78S
MADISON        MOSUNNY   73  46  38 NW14G21   29.78R
WILLMAR        FAIR      72  46  40 W13G23    29.79R
$$
MNZ033>034-036-042>043-049>051-058-059-270100-
   Central Minnesota

CITY           SKY/WX    TMP DP  RH WIND       PRES   REMARKS
ST CLOUD       MOSUNNY   72  48  42 W10       29.74R
6HR MIN TEMP:  71; 6HR MAX TEMP:  76;

SAUK CENTRE    FAIR      69  46  43 W12       29.76S
PAYNESVILLE    SUNNY     71  42  34 W12       29.77S
AITKIN         SUNNY     72  45  37 W9        29.71R
PINE RIVER     MOSUNNY   70  48  46 W5        29.76R
BRAINERD       SUNNY     71  44  37 SW13      29.73R
STAPLES        SUNNY     70  41  35 W9        29.74R
LONG PRAIRIE   FAIR      70  43  37 SW13      29.76S
LITTLE FALLS   MOSUNNY   70  41  35 W12       29.75R
LITCHFIELD     SUNNY     73  46  38 W10G17    29.77R
BUFFALO        SUNNY     73  46  37 W10G17    29.76R
MAPLE LAKE     SUNNY     74  49  40 W6        29.76R
HUTCHINSON     SUNNY     75  48  38 W17       29.77S
$$
MNZ037-044-045-052-053-270100-
   East Central Minnesota

CITY           SKY/WX    TMP DP  RH WIND       PRES   REMARKS
PRINCETON      SUNNY     75  48  38 SW10      29.74R
MORA           SUNNY     70  45  40 W14       29.74R
CAMBRIDGE      SUNNY     77  54  44 W9G17     29.71R
RUSH CITY      SUNNY     74  53  47 W6        29.72R
MOOSE LAKE     SUNNY     73  48  40 W9        29.68R
HINCKLEY       FAIR      73  52  46 W14G20    29.71R
CLOQUET        SUNNY     63  52  67 E7        29.70R
MCGREGOR       SUNNY     72  45  37 W10G18    29.72R
$$
MNZ071>073-080-081-089-090-097-098-270100-
   Southwest Minnesota

CITY           SKY/WX    TMP DP  RH WIND       PRES   REMARKS
MONTEVIDEO     SUNNY     73  45  35 NW6       29.78R
CANBY          SUNNY     71  45  39 CALM      29.80R
MARSHALL       MOSUNNY   72  44  36 NW15      29.79R
REDWOOD FALLS  SUNNY     73  43  33 W14       29.77S
OLIVIA         MOSUNNY   73  45  35 NW12      29.77S
PIPESTONE      SUNNY     72  32  23 NW14      29.82S
WINDOM         SUNNY     73  43  33 W12G17    29.80S
WORTHINGTON    SUNNY     71  43  36 W16       29.82R
JACKSON        SUNNY     72  43  35 NW14      29.82R
TRACY          SUNNY     73  46  38 W9        29.81R
SLAYTON        SUNNY     70  43  37 W13       29.82S
$$
MNZ065>067-074>077-082>085-091>093-270100-
   South Central Minnesota

CITY           SKY/WX    TMP DP  RH WIND       PRES   REMARKS
MANKATO        SUNNY     75  49  39 W13       29.76R
NEW ULM        SUNNY     73  43  33 W16       29.77R
ST JAMES       SUNNY     75  45  33 W16       29.79R
FAIRMONT       SUNNY     76  45  33 NW14      29.78R
GLENCOE        SUNNY     76  50  40 W12G18    29.75S
FARIBAULT      SUNNY     77  50  38 W9        29.75S
OWATONNA       SUNNY     79  48  34 W13       29.75S
WASECA         SUNNY     77  50  38 W14       29.77S
ALBERT LEA     MOSUNNY   79  57  47 SW3       29.76S
$$
MNZ078>079-086>088-094>096-270100-
   Southeast Minnesota

CITY           SKY/WX    TMP DP  RH WIND       PRES   REMARKS
ROCHESTER      MOSUNNY   71  58  63 S12       29.78S
6HR MIN TEMP:  68; 6HR MAX TEMP:  73;

RED WING       MOSUNNY   75  54  46 S7        29.73S
STANTON        MOSUNNY   76  50  39 SW8       29.73R
DODGE CENTER   MOSUNNY   73  55  53 S15       29.77S
WINONA         SUNNY     70  55  60 S3        29.78S
AUSTIN         PTSUNNY   72  57  60 S8        29.77S
PRESTON        SUNNY     68  56  64 S8        29.80S
$$
ABBREVIATIONS USED IN REMARKS
   TC - TEMPERATURES IN CELSIUS
  WCI - WIND CHILL INDEX
   HX - HEAT INDEX
  VSB - VISIBILITY
$$




USA.gov is the U.S. government's official web portal to all federal, state and local government web resources and services.